Year,Month,Day,Hour,Minute,Value (Times are PST for temperature in C)
2015,07,25,00,00,14.10
2015,07,25,00,01,14.10
2015,07,25,00,02,14.10
2015,07,25,00,03,14.10
2015,07,25,00,04,14.10
2015,07,25,00,05,14.10
2015,07,25,00,06,14.00
2015,07,25,00,07,14.00
2015,07,25,00,08,14.00
2015,07,25,00,09,13.90
2015,07,25,00,10,13.90
2015,07,25,00,11,13.90
2015,07,25,00,12,13.90
2015,07,25,00,13,13.90
2015,07,25,00,14,13.80
2015,07,25,00,15,13.80
2015,07,25,00,16,13.80
2015,07,25,00,17,13.80
2015,07,25,00,18,13.80
2015,07,25,00,19,13.80
2015,07,25,00,20,13.80
2015,07,25,00,21,13.80
2015,07,25,00,22,13.70
2015,07,25,00,23,13.70
2015,07,25,00,24,13.70
2015,07,25,00,25,13.70
2015,07,25,00,26,13.70
2015,07,25,00,27,13.70
2015,07,25,00,28,13.70
2015,07,25,00,29,13.70
2015,07,25,00,30,13.70
2015,07,25,00,31,13.70
2015,07,25,00,32,13.70
2015,07,25,00,33,13.60
2015,07,25,00,34,13.60
2015,07,25,00,35,13.60
2015,07,25,00,36,13.60
2015,07,25,00,37,13.60
2015,07,25,00,38,13.60
2015,07,25,00,39,13.60
2015,07,25,00,40,13.60
2015,07,25,00,41,13.60
2015,07,25,00,42,13.60
2015,07,25,00,43,13.60
2015,07,25,00,44,13.60
2015,07,25,00,45,13.60
2015,07,25,00,46,13.50
2015,07,25,00,47,13.50
2015,07,25,00,48,13.50
2015,07,25,00,49,13.50
2015,07,25,00,50,13.40
2015,07,25,00,51,13.40
2015,07,25,00,52,13.40
2015,07,25,00,53,13.40
2015,07,25,00,54,13.40
2015,07,25,00,55,13.40
2015,07,25,00,56,13.40
2015,07,25,00,57,13.40
2015,07,25,00,58,13.40
2015,07,25,00,59,13.40
2015,07,25,01,00,13.40
2015,07,25,01,01,13.40
2015,07,25,01,02,13.30
2015,07,25,01,03,13.30
2015,07,25,01,04,13.30
2015,07,25,01,05,13.30
2015,07,25,01,06,13.30
2015,07,25,01,07,13.30
2015,07,25,01,08,13.30
2015,07,25,01,09,13.30
2015,07,25,01,10,13.30
2015,07,25,01,11,13.30
2015,07,25,01,12,13.30
2015,07,25,01,13,13.30
2015,07,25,01,14,13.30
2015,07,25,01,15,13.20
2015,07,25,01,16,13.20
2015,07,25,01,17,13.20
2015,07,25,01,18,13.20
2015,07,25,01,19,13.20
2015,07,25,01,20,13.20
2015,07,25,01,21,13.20
2015,07,25,01,22,13.20
2015,07,25,01,23,13.10
2015,07,25,01,24,13.10
2015,07,25,01,25,13.10
2015,07,25,01,26,13.10
2015,07,25,01,27,13.10
2015,07,25,01,28,13.10
2015,07,25,01,29,13.10
2015,07,25,01,30,13.10
2015,07,25,01,31,13.10
2015,07,25,01,32,13.10
2015,07,25,01,33,13.10
2015,07,25,01,34,13.10
2015,07,25,01,35,13.20
2015,07,25,01,36,13.20
2015,07,25,01,37,13.20
2015,07,25,01,38,13.20
2015,07,25,01,39,13.20
2015,07,25,01,40,13.20
2015,07,25,01,41,13.20
2015,07,25,01,42,13.20
2015,07,25,01,43,13.20
2015,07,25,01,44,13.20
2015,07,25,01,45,13.20
2015,07,25,01,46,13.20
2015,07,25,01,47,13.20
2015,07,25,01,48,13.20
2015,07,25,01,49,13.20
2015,07,25,01,50,13.20
2015,07,25,01,51,13.20
2015,07,25,01,52,13.20
2015,07,25,01,53,13.20
2015,07,25,01,54,13.20
2015,07,25,01,55,13.20
2015,07,25,01,56,13.20
2015,07,25,01,57,13.10
2015,07,25,01,58,13.10
2015,07,25,01,59,13.10
2015,07,25,02,00,13.10
2015,07,25,02,01,13.10
2015,07,25,02,02,13.10
2015,07,25,02,03,13.10
2015,07,25,02,04,13.10
2015,07,25,02,05,13.10
2015,07,25,02,06,13.00
2015,07,25,02,07,13.00
2015,07,25,02,08,13.00
2015,07,25,02,09,13.00
2015,07,25,02,10,12.90
2015,07,25,02,11,12.90
2015,07,25,02,12,12.90
2015,07,25,02,13,12.90
2015,07,25,02,14,12.90
2015,07,25,02,15,12.90
2015,07,25,02,16,12.80
2015,07,25,02,17,12.80
2015,07,25,02,18,12.80
2015,07,25,02,19,12.80
2015,07,25,02,20,12.80
2015,07,25,02,21,12.80
2015,07,25,02,22,12.80
2015,07,25,02,23,12.80
2015,07,25,02,24,12.70
2015,07,25,02,25,12.70
2015,07,25,02,26,12.70
2015,07,25,02,27,12.70
2015,07,25,02,28,12.70
2015,07,25,02,29,12.70
2015,07,25,02,30,12.70
2015,07,25,02,31,12.70
2015,07,25,02,32,12.70
2015,07,25,02,33,12.60
2015,07,25,02,34,12.60
2015,07,25,02,35,12.60
2015,07,25,02,36,12.60
2015,07,25,02,37,12.60
2015,07,25,02,38,12.60
2015,07,25,02,39,12.60
2015,07,25,02,40,12.60
2015,07,25,02,41,12.60
2015,07,25,02,42,12.60
2015,07,25,02,43,12.50
2015,07,25,02,44,12.50
2015,07,25,02,45,12.50
2015,07,25,02,46,12.50
2015,07,25,02,47,12.50
2015,07,25,02,48,12.50
2015,07,25,02,49,12.40
2015,07,25,02,50,12.40
2015,07,25,02,51,12.40
2015,07,25,02,52,12.40
2015,07,25,02,53,12.30
2015,07,25,02,54,12.30
2015,07,25,02,55,12.30
2015,07,25,02,56,12.20
2015,07,25,02,57,12.20
2015,07,25,02,58,12.20
2015,07,25,02,59,12.20
2015,07,25,03,00,12.20
2015,07,25,03,01,12.20
2015,07,25,03,02,12.20
2015,07,25,03,03,12.20
2015,07,25,03,04,12.20
2015,07,25,03,05,12.10
2015,07,25,03,06,12.10
2015,07,25,03,07,12.10
2015,07,25,03,08,12.10
2015,07,25,03,09,12.10
2015,07,25,03,10,12.10
2015,07,25,03,11,12.10
2015,07,25,03,12,12.10
2015,07,25,03,13,12.10
2015,07,25,03,14,12.10
2015,07,25,03,15,12.10
2015,07,25,03,16,12.10
2015,07,25,03,17,12.10
2015,07,25,03,18,12.10
2015,07,25,03,19,12.10
2015,07,25,03,20,12.10
2015,07,25,03,21,12.10
2015,07,25,03,22,12.20
2015,07,25,03,23,12.20
2015,07,25,03,24,12.20
2015,07,25,03,25,12.20
2015,07,25,03,26,12.20
2015,07,25,03,27,12.20
2015,07,25,03,28,12.20
2015,07,25,03,29,12.20
2015,07,25,03,30,12.30
2015,07,25,03,31,12.30
2015,07,25,03,32,12.30
2015,07,25,03,33,12.30
2015,07,25,03,34,12.30
2015,07,25,03,35,12.30
2015,07,25,03,36,12.30
2015,07,25,03,37,12.40
2015,07,25,03,38,12.40
2015,07,25,03,39,12.40
2015,07,25,03,40,12.40
2015,07,25,03,41,12.40
2015,07,25,03,42,12.50
2015,07,25,03,43,12.50
2015,07,25,03,44,12.50
2015,07,25,03,45,12.60
2015,07,25,03,46,12.60
2015,07,25,03,47,12.60
2015,07,25,03,48,12.60
2015,07,25,03,49,12.60
2015,07,25,03,50,12.60
2015,07,25,03,51,12.60
2015,07,25,03,52,12.50
2015,07,25,03,53,12.50
2015,07,25,03,54,12.50
2015,07,25,03,55,12.40
2015,07,25,03,56,12.40
2015,07,25,03,57,12.40
2015,07,25,03,58,12.30
2015,07,25,03,59,12.30
2015,07,25,04,00,12.30
2015,07,25,04,01,12.30
2015,07,25,04,02,12.30
2015,07,25,04,03,12.30
2015,07,25,04,04,12.30
2015,07,25,04,05,12.30
2015,07,25,04,06,12.20
2015,07,25,04,07,12.20
2015,07,25,04,08,12.20
2015,07,25,04,09,12.20
2015,07,25,04,10,12.20
2015,07,25,04,11,12.20
2015,07,25,04,12,12.20
2015,07,25,04,13,12.20
2015,07,25,04,14,12.20
2015,07,25,04,15,12.20
2015,07,25,04,16,12.20
2015,07,25,04,17,12.20
2015,07,25,04,18,12.20
2015,07,25,04,19,12.10
2015,07,25,04,20,12.10
2015,07,25,04,21,12.10
2015,07,25,04,22,12.10
2015,07,25,04,23,12.10
2015,07,25,04,24,12.00
2015,07,25,04,25,12.00
2015,07,25,04,26,12.00
2015,07,25,04,27,12.00
2015,07,25,04,28,12.00
2015,07,25,04,29,12.00
2015,07,25,04,30,11.90
2015,07,25,04,31,11.90
2015,07,25,04,32,11.90
2015,07,25,04,33,11.90
2015,07,25,04,34,11.90
2015,07,25,04,35,11.90
2015,07,25,04,36,11.90
2015,07,25,04,37,11.90
2015,07,25,04,38,11.90
2015,07,25,04,39,11.90
2015,07,25,04,40,11.90
2015,07,25,04,41,11.90
2015,07,25,04,42,11.90
2015,07,25,04,43,11.90
2015,07,25,04,44,11.90
2015,07,25,04,45,11.90
2015,07,25,04,46,11.90
2015,07,25,04,47,11.90
2015,07,25,04,48,11.90
2015,07,25,04,49,11.90
2015,07,25,04,50,11.90
2015,07,25,04,51,11.90
2015,07,25,04,52,11.80
2015,07,25,04,53,11.80
2015,07,25,04,54,11.80
2015,07,25,04,55,11.80
2015,07,25,04,56,11.80
2015,07,25,04,57,11.80
2015,07,25,04,58,11.80
2015,07,25,04,59,11.80
2015,07,25,05,00,11.80
2015,07,25,05,01,11.80
2015,07,25,05,02,11.80
2015,07,25,05,03,11.80
2015,07,25,05,04,11.90
2015,07,25,05,05,11.90
2015,07,25,05,06,11.90
2015,07,25,05,07,11.90
2015,07,25,05,08,12.00
2015,07,25,05,09,12.00
2015,07,25,05,10,12.10
2015,07,25,05,11,12.10
2015,07,25,05,12,12.10
2015,07,25,05,13,12.20
2015,07,25,05,14,12.20
2015,07,25,05,15,12.30
2015,07,25,05,16,12.30
2015,07,25,05,17,12.30
2015,07,25,05,18,12.30
2015,07,25,05,19,12.40
2015,07,25,05,20,12.40
2015,07,25,05,21,12.50
2015,07,25,05,22,12.50
2015,07,25,05,23,12.50
2015,07,25,05,24,12.50
2015,07,25,05,25,12.50
2015,07,25,05,26,12.50
2015,07,25,05,27,12.50
2015,07,25,05,28,12.50
2015,07,25,05,29,12.60
2015,07,25,05,30,12.60
2015,07,25,05,31,12.60
2015,07,25,05,32,12.60
2015,07,25,05,33,12.60
2015,07,25,05,34,12.60
2015,07,25,05,35,12.50
2015,07,25,05,36,12.50
2015,07,25,05,37,12.50
2015,07,25,05,38,12.50
2015,07,25,05,39,12.50
2015,07,25,05,40,12.50
2015,07,25,05,41,12.50
2015,07,25,05,42,12.50
2015,07,25,05,43,12.60
2015,07,25,05,44,12.60
2015,07,25,05,45,12.70
2015,07,25,05,46,12.70
2015,07,25,05,47,12.80
2015,07,25,05,48,12.80
2015,07,25,05,49,12.80
2015,07,25,05,50,12.90
2015,07,25,05,51,12.90
2015,07,25,05,52,13.00
2015,07,25,05,53,13.00
2015,07,25,05,54,13.10
2015,07,25,05,55,13.10
2015,07,25,05,56,13.10
2015,07,25,05,57,13.10
2015,07,25,05,58,13.10
2015,07,25,05,59,13.10
2015,07,25,06,00,13.20
2015,07,25,06,01,13.20
2015,07,25,06,02,13.20
2015,07,25,06,03,13.20
2015,07,25,06,04,13.20
2015,07,25,06,05,13.10
2015,07,25,06,06,13.10
2015,07,25,06,07,13.20
2015,07,25,06,08,13.20
2015,07,25,06,09,13.20
2015,07,25,06,10,13.20
2015,07,25,06,11,13.20
2015,07,25,06,12,13.30
2015,07,25,06,13,13.30
2015,07,25,06,14,13.30
2015,07,25,06,15,13.30
2015,07,25,06,16,13.30
2015,07,25,06,17,13.40
2015,07,25,06,18,13.40
2015,07,25,06,19,13.40
2015,07,25,06,20,13.40
2015,07,25,06,21,13.40
2015,07,25,06,22,13.50
2015,07,25,06,23,13.50
2015,07,25,06,24,13.50
2015,07,25,06,25,13.50
2015,07,25,06,26,13.50
2015,07,25,06,27,13.50
2015,07,25,06,28,13.60
2015,07,25,06,29,13.60
2015,07,25,06,30,13.60
2015,07,25,06,31,13.60
2015,07,25,06,32,13.60
2015,07,25,06,33,13.70
2015,07,25,06,34,13.70
2015,07,25,06,35,13.70
2015,07,25,06,36,13.70
2015,07,25,06,37,13.70
2015,07,25,06,38,13.80
2015,07,25,06,39,13.80
2015,07,25,06,40,13.80
2015,07,25,06,41,13.80
2015,07,25,06,42,13.80
2015,07,25,06,43,13.80
2015,07,25,06,44,13.80
2015,07,25,06,45,13.80
2015,07,25,06,46,13.90
2015,07,25,06,47,13.90
2015,07,25,06,48,13.90
2015,07,25,06,49,13.90
2015,07,25,06,50,13.90
2015,07,25,06,51,14.00
2015,07,25,06,52,14.00
2015,07,25,06,53,14.10
2015,07,25,06,54,14.10
2015,07,25,06,55,14.10
2015,07,25,06,56,14.10
2015,07,25,06,57,14.10
2015,07,25,06,58,14.20
2015,07,25,06,59,14.20
2015,07,25,07,00,14.20
2015,07,25,07,01,14.20
2015,07,25,07,02,14.20
2015,07,25,07,03,14.20
2015,07,25,07,04,14.20
2015,07,25,07,05,14.30
2015,07,25,07,06,14.30
2015,07,25,07,07,14.30
2015,07,25,07,08,14.30
2015,07,25,07,09,14.30
2015,07,25,07,10,14.30
2015,07,25,07,11,14.30
2015,07,25,07,12,14.40
2015,07,25,07,13,14.40
2015,07,25,07,14,14.40
2015,07,25,07,15,14.40
2015,07,25,07,16,14.40
2015,07,25,07,17,14.40
2015,07,25,07,18,14.40
2015,07,25,07,19,14.50
2015,07,25,07,20,14.50
2015,07,25,07,21,14.50
2015,07,25,07,22,14.50
2015,07,25,07,23,14.60
2015,07,25,07,24,14.60
2015,07,25,07,25,14.60
2015,07,25,07,26,14.60
2015,07,25,07,27,14.60
2015,07,25,07,28,14.70
2015,07,25,07,29,14.70
2015,07,25,07,30,14.70
2015,07,25,07,31,14.70
2015,07,25,07,32,14.70
2015,07,25,07,33,14.70
2015,07,25,07,34,14.70
2015,07,25,07,35,14.80
2015,07,25,07,36,14.80
2015,07,25,07,37,14.80
2015,07,25,07,38,14.80
2015,07,25,07,39,14.80
2015,07,25,07,40,14.90
2015,07,25,07,41,14.90
2015,07,25,07,42,15.00
2015,07,25,07,43,15.00
2015,07,25,07,44,15.10
2015,07,25,07,45,15.20
2015,07,25,07,46,15.30
2015,07,25,07,47,15.40
2015,07,25,07,48,15.50
2015,07,25,07,49,15.60
2015,07,25,07,50,15.70
2015,07,25,07,51,15.80
2015,07,25,07,52,15.90
2015,07,25,07,53,16.00
2015,07,25,07,54,16.00
2015,07,25,07,55,16.10
2015,07,25,07,56,16.20
2015,07,25,07,57,16.20
2015,07,25,07,58,16.30
2015,07,25,07,59,16.30
2015,07,25,08,00,16.40
2015,07,25,08,01,16.50
2015,07,25,08,02,16.50
2015,07,25,08,03,16.60
2015,07,25,08,04,16.60
2015,07,25,08,05,16.70
2015,07,25,08,06,16.70
2015,07,25,08,07,16.70
2015,07,25,08,08,16.60
2015,07,25,08,09,16.60
2015,07,25,08,10,16.60
2015,07,25,08,11,16.60
2015,07,25,08,12,16.60
2015,07,25,08,13,16.50
2015,07,25,08,14,16.50
2015,07,25,08,15,16.50
2015,07,25,08,16,16.50
2015,07,25,08,17,16.50
2015,07,25,08,18,16.50
2015,07,25,08,19,16.50
2015,07,25,08,20,16.60
2015,07,25,08,21,16.60
2015,07,25,08,22,16.60
2015,07,25,08,23,16.70
2015,07,25,08,24,16.80
2015,07,25,08,25,16.90
2015,07,25,08,26,17.00
2015,07,25,08,27,17.20
2015,07,25,08,28,17.20
2015,07,25,08,29,17.30
2015,07,25,08,30,17.50
2015,07,25,08,31,17.60
2015,07,25,08,32,17.70
2015,07,25,08,33,17.70
2015,07,25,08,34,17.80
2015,07,25,08,35,17.90
2015,07,25,08,36,17.90
2015,07,25,08,37,17.90
2015,07,25,08,38,17.90
2015,07,25,08,39,17.90
2015,07,25,08,40,17.90
2015,07,25,08,41,18.00
2015,07,25,08,42,18.00
2015,07,25,08,43,18.00
2015,07,25,08,44,17.90
2015,07,25,08,45,17.80
2015,07,25,08,46,17.80
2015,07,25,08,47,17.80
2015,07,25,08,48,17.70
2015,07,25,08,49,17.70
2015,07,25,08,50,17.70
2015,07,25,08,51,17.70
2015,07,25,08,52,17.80
2015,07,25,08,53,17.80
2015,07,25,08,54,17.90
2015,07,25,08,55,18.00
2015,07,25,08,56,18.00
2015,07,25,08,57,18.10
2015,07,25,08,58,18.10
2015,07,25,08,59,18.20
2015,07,25,09,00,18.20
2015,07,25,09,01,18.20
2015,07,25,09,02,18.20
2015,07,25,09,03,18.30
2015,07,25,09,04,18.30
2015,07,25,09,05,18.30
2015,07,25,09,06,18.30
2015,07,25,09,07,18.30
2015,07,25,09,08,18.30
2015,07,25,09,09,18.30
2015,07,25,09,10,18.40
2015,07,25,09,11,18.50
2015,07,25,09,12,18.50
2015,07,25,09,13,18.60
2015,07,25,09,14,18.60
2015,07,25,09,15,18.70
2015,07,25,09,16,18.80
2015,07,25,09,17,18.80
2015,07,25,09,18,18.90
2015,07,25,09,19,19.00
2015,07,25,09,20,19.10
2015,07,25,09,21,19.20
2015,07,25,09,22,19.30
2015,07,25,09,23,19.40
2015,07,25,09,24,19.50
2015,07,25,09,25,19.60
2015,07,25,09,26,19.70
2015,07,25,09,27,19.80
2015,07,25,09,28,19.80
2015,07,25,09,29,19.80
2015,07,25,09,30,19.80
2015,07,25,09,31,19.90
2015,07,25,09,32,19.90
2015,07,25,09,33,19.90
2015,07,25,09,34,19.90
2015,07,25,09,35,20.00
2015,07,25,09,36,20.00
2015,07,25,09,37,20.10
2015,07,25,09,38,20.10
2015,07,25,09,39,20.00
2015,07,25,09,40,19.90
2015,07,25,09,41,19.70
2015,07,25,09,42,19.50
2015,07,25,09,43,19.40
2015,07,25,09,44,19.30
2015,07,25,09,45,19.30
2015,07,25,09,46,19.40
2015,07,25,09,47,19.40
2015,07,25,09,48,19.40
2015,07,25,09,49,19.40
2015,07,25,09,50,19.50
2015,07,25,09,51,19.50
2015,07,25,09,52,19.60
2015,07,25,09,53,19.70
2015,07,25,09,54,19.80
2015,07,25,09,55,19.80
2015,07,25,09,56,19.80
2015,07,25,09,57,19.70
2015,07,25,09,58,19.70
2015,07,25,09,59,19.60
2015,07,25,10,00,19.50
2015,07,25,10,01,19.40
2015,07,25,10,02,19.20
2015,07,25,10,03,19.20
2015,07,25,10,04,19.10
2015,07,25,10,05,19.10
2015,07,25,10,06,19.10
2015,07,25,10,07,19.10
2015,07,25,10,08,19.10
2015,07,25,10,09,19.00
2015,07,25,10,10,19.00
2015,07,25,10,11,19.10
2015,07,25,10,12,19.20
2015,07,25,10,13,19.30
2015,07,25,10,14,19.50
2015,07,25,10,15,19.70
2015,07,25,10,16,19.80
2015,07,25,10,17,19.90
2015,07,25,10,18,19.90
2015,07,25,10,19,20.10
2015,07,25,10,20,20.20
2015,07,25,10,21,20.30
2015,07,25,10,22,20.40
2015,07,25,10,23,20.40
2015,07,25,10,24,20.30
2015,07,25,10,25,20.40
2015,07,25,10,26,20.40
2015,07,25,10,27,20.50
2015,07,25,10,28,20.50
2015,07,25,10,29,20.40
2015,07,25,10,30,20.40
2015,07,25,10,31,20.30
2015,07,25,10,32,20.30
2015,07,25,10,33,20.20
2015,07,25,10,34,20.20
2015,07,25,10,35,20.00
2015,07,25,10,36,19.90
2015,07,25,10,37,19.70
2015,07,25,10,38,19.60
2015,07,25,10,39,19.60
2015,07,25,10,40,19.50
2015,07,25,10,41,19.40
2015,07,25,10,42,19.40
2015,07,25,10,43,19.40
2015,07,25,10,44,19.30
2015,07,25,10,45,19.30
2015,07,25,10,46,19.20
2015,07,25,10,47,19.10
2015,07,25,10,48,19.00
2015,07,25,10,49,19.00
2015,07,25,10,50,18.90
2015,07,25,10,51,18.80
2015,07,25,10,52,18.80
2015,07,25,10,53,18.80
2015,07,25,10,54,18.80
2015,07,25,10,55,18.90
2015,07,25,10,56,18.90
2015,07,25,10,57,18.90
2015,07,25,10,58,18.90
2015,07,25,10,59,18.90
2015,07,25,11,00,18.90
2015,07,25,11,01,18.90
2015,07,25,11,02,18.80
2015,07,25,11,03,18.80
2015,07,25,11,04,18.80
2015,07,25,11,05,18.80
2015,07,25,11,06,18.90
2015,07,25,11,07,18.90
2015,07,25,11,08,18.90
2015,07,25,11,09,18.90
2015,07,25,11,10,18.90
2015,07,25,11,11,18.90
2015,07,25,11,12,18.80
2015,07,25,11,13,18.80
2015,07,25,11,14,18.80
2015,07,25,11,15,18.80
2015,07,25,11,16,18.70
2015,07,25,11,17,18.80
2015,07,25,11,18,18.80
2015,07,25,11,19,18.70
2015,07,25,11,20,18.70
2015,07,25,11,21,18.70
2015,07,25,11,22,18.70
2015,07,25,11,23,18.60
2015,07,25,11,24,18.60
2015,07,25,11,25,18.60
2015,07,25,11,26,18.60
2015,07,25,11,27,18.60
2015,07,25,11,28,18.60
2015,07,25,11,29,18.60
2015,07,25,11,30,18.60
2015,07,25,11,31,18.50
2015,07,25,11,32,18.50
2015,07,25,11,33,18.50
2015,07,25,11,34,18.50
2015,07,25,11,35,18.50
2015,07,25,11,36,18.60
2015,07,25,11,37,18.60
2015,07,25,11,38,18.60
2015,07,25,11,39,18.60
2015,07,25,11,40,18.70
2015,07,25,11,41,18.70
2015,07,25,11,42,18.70
2015,07,25,11,43,18.70
2015,07,25,11,44,18.70
2015,07,25,11,45,18.70
2015,07,25,11,46,18.70
2015,07,25,11,47,18.70
2015,07,25,11,48,18.80
2015,07,25,11,49,18.80
2015,07,25,11,50,18.80
2015,07,25,11,51,18.80
2015,07,25,11,52,18.80
2015,07,25,11,53,18.80
2015,07,25,11,54,18.70
2015,07,25,11,55,18.70
2015,07,25,11,56,18.70
2015,07,25,11,57,18.80
2015,07,25,11,58,18.80
2015,07,25,11,59,18.90
2015,07,25,12,00,18.90
2015,07,25,12,01,18.90
2015,07,25,12,02,18.90
2015,07,25,12,03,19.00
2015,07,25,12,04,19.00
2015,07,25,12,05,19.00
2015,07,25,12,06,19.00
2015,07,25,12,07,19.10
2015,07,25,12,08,19.10
2015,07,25,12,09,19.10
2015,07,25,12,10,19.10
2015,07,25,12,11,19.20
2015,07,25,12,12,19.20
2015,07,25,12,13,19.20
2015,07,25,12,14,19.20
2015,07,25,12,15,19.30
2015,07,25,12,16,19.30
2015,07,25,12,17,19.30
2015,07,25,12,18,19.30
2015,07,25,12,19,19.30
2015,07,25,12,20,19.40
2015,07,25,12,21,19.40
2015,07,25,12,22,19.40
2015,07,25,12,23,19.40
2015,07,25,12,24,19.40
2015,07,25,12,25,19.40
2015,07,25,12,26,19.40
2015,07,25,12,27,19.40
2015,07,25,12,28,19.40
2015,07,25,12,29,19.40
2015,07,25,12,30,19.40
2015,07,25,12,31,19.50
2015,07,25,12,32,19.50
2015,07,25,12,33,19.40
2015,07,25,12,34,19.40
2015,07,25,12,35,19.40
2015,07,25,12,36,19.40
2015,07,25,12,37,19.40
2015,07,25,12,38,19.40
2015,07,25,12,39,19.40
2015,07,25,12,40,19.40
2015,07,25,12,41,19.40
2015,07,25,12,42,19.40
2015,07,25,12,43,19.50
2015,07,25,12,44,19.50
2015,07,25,12,45,19.50
2015,07,25,12,46,19.60
2015,07,25,12,47,19.60
2015,07,25,12,48,19.70
2015,07,25,12,49,19.70
2015,07,25,12,50,19.70
2015,07,25,12,51,19.80
2015,07,25,12,52,19.80
2015,07,25,12,53,19.90
2015,07,25,12,54,19.90
2015,07,25,12,55,19.90
2015,07,25,12,56,19.90
2015,07,25,12,57,19.90
2015,07,25,12,58,19.90
2015,07,25,12,59,19.90
2015,07,25,13,00,19.90
2015,07,25,13,01,19.90
2015,07,25,13,02,20.00
2015,07,25,13,03,20.00
2015,07,25,13,04,20.00
2015,07,25,13,05,20.10
2015,07,25,13,06,20.10
2015,07,25,13,07,20.20
2015,07,25,13,08,20.20
2015,07,25,13,09,20.20
2015,07,25,13,10,20.30
2015,07,25,13,11,20.30
2015,07,25,13,12,20.30
2015,07,25,13,13,20.40
2015,07,25,13,14,20.40
2015,07,25,13,15,20.40
2015,07,25,13,16,20.40
2015,07,25,13,17,20.40
2015,07,25,13,18,20.40
2015,07,25,13,19,20.40
2015,07,25,13,20,20.40
2015,07,25,13,21,20.40
2015,07,25,13,22,20.50
2015,07,25,13,23,20.50
2015,07,25,13,24,20.60
2015,07,25,13,25,20.60
2015,07,25,13,26,20.60
2015,07,25,13,27,20.60
2015,07,25,13,28,20.70
2015,07,25,13,29,20.80
2015,07,25,13,30,20.80
2015,07,25,13,31,20.90
2015,07,25,13,32,20.80
2015,07,25,13,33,20.80
2015,07,25,13,34,20.90
2015,07,25,13,35,20.90
2015,07,25,13,36,20.90
2015,07,25,13,37,21.00
2015,07,25,13,38,21.00
2015,07,25,13,39,21.00
2015,07,25,13,40,21.00
2015,07,25,13,41,21.00
2015,07,25,13,42,21.00
2015,07,25,13,43,21.00
2015,07,25,13,44,21.00
2015,07,25,13,45,21.00
2015,07,25,13,46,21.00
2015,07,25,13,47,20.90
2015,07,25,13,48,20.90
2015,07,25,13,49,20.90
2015,07,25,13,50,20.90
2015,07,25,13,51,20.80
2015,07,25,13,52,20.80
2015,07,25,13,53,20.70
2015,07,25,13,54,20.60
2015,07,25,13,55,20.50
2015,07,25,13,56,20.40
2015,07,25,13,57,20.30
2015,07,25,13,58,20.20
2015,07,25,13,59,20.10
2015,07,25,14,00,20.10
2015,07,25,14,01,20.10
2015,07,25,14,02,20.10
2015,07,25,14,03,20.10
2015,07,25,14,04,20.10
2015,07,25,14,05,20.10
2015,07,25,14,06,20.10
2015,07,25,14,07,20.00
2015,07,25,14,08,20.00
2015,07,25,14,09,19.90
2015,07,25,14,10,19.90
2015,07,25,14,11,19.80
2015,07,25,14,12,19.80
2015,07,25,14,13,19.80
2015,07,25,14,14,19.80
2015,07,25,14,15,19.80
2015,07,25,14,16,19.80
2015,07,25,14,17,19.80
2015,07,25,14,18,19.70
2015,07,25,14,19,19.70
2015,07,25,14,20,19.60
2015,07,25,14,21,19.60
2015,07,25,14,22,19.50
2015,07,25,14,23,19.50
2015,07,25,14,24,19.50
2015,07,25,14,25,19.40
2015,07,25,14,26,19.40
2015,07,25,14,27,19.40
2015,07,25,14,28,19.40
2015,07,25,14,29,19.40
2015,07,25,14,30,19.40
2015,07,25,14,31,19.40
2015,07,25,14,32,19.50
2015,07,25,14,33,19.50
2015,07,25,14,34,19.60
2015,07,25,14,35,19.70
2015,07,25,14,36,19.70
2015,07,25,14,37,19.80
2015,07,25,14,38,19.80
2015,07,25,14,39,19.80
2015,07,25,14,40,19.80
2015,07,25,14,41,19.80
2015,07,25,14,42,19.80
2015,07,25,14,43,19.80
2015,07,25,14,44,19.90
2015,07,25,14,45,20.00
2015,07,25,14,46,20.00
2015,07,25,14,47,20.10
2015,07,25,14,48,20.10
2015,07,25,14,49,20.10
2015,07,25,14,50,20.20
2015,07,25,14,51,20.20
2015,07,25,14,52,20.30
2015,07,25,14,53,20.40
2015,07,25,14,54,20.50
2015,07,25,14,55,20.50
2015,07,25,14,56,20.60
2015,07,25,14,57,20.70
2015,07,25,14,58,20.70
2015,07,25,14,59,20.70
2015,07,25,15,00,20.80
2015,07,25,15,01,20.80
2015,07,25,15,02,20.90
2015,07,25,15,03,21.00
2015,07,25,15,04,21.10
2015,07,25,15,05,21.20
2015,07,25,15,06,21.30
2015,07,25,15,07,21.40
2015,07,25,15,08,21.50
2015,07,25,15,09,21.60
2015,07,25,15,10,21.70
2015,07,25,15,11,21.80
2015,07,25,15,12,21.90
2015,07,25,15,13,22.00
2015,07,25,15,14,22.20
2015,07,25,15,15,22.40
2015,07,25,15,16,22.50
2015,07,25,15,17,22.60
2015,07,25,15,18,22.60
2015,07,25,15,19,22.50
2015,07,25,15,20,22.40
2015,07,25,15,21,22.30
2015,07,25,15,22,22.10
2015,07,25,15,23,22.00
2015,07,25,15,24,21.80
2015,07,25,15,25,21.60
2015,07,25,15,26,21.40
2015,07,25,15,27,21.30
2015,07,25,15,28,21.30
2015,07,25,15,29,21.30
2015,07,25,15,30,21.20
2015,07,25,15,31,21.20
2015,07,25,15,32,21.20
2015,07,25,15,33,21.20
2015,07,25,15,34,21.10
2015,07,25,15,35,21.00
2015,07,25,15,36,20.90
2015,07,25,15,37,20.80
2015,07,25,15,38,20.80
2015,07,25,15,39,20.70
2015,07,25,15,40,20.70
2015,07,25,15,41,20.60
2015,07,25,15,42,20.60
2015,07,25,15,43,20.50
2015,07,25,15,44,20.30
2015,07,25,15,45,20.30
2015,07,25,15,46,20.20
2015,07,25,15,47,20.30
2015,07,25,15,48,20.30
2015,07,25,15,49,20.30
2015,07,25,15,50,20.40
2015,07,25,15,51,20.30
2015,07,25,15,52,20.30
2015,07,25,15,53,20.20
2015,07,25,15,54,20.20
2015,07,25,15,55,20.20
2015,07,25,15,56,20.20
2015,07,25,15,57,20.20
2015,07,25,15,58,20.20
2015,07,25,15,59,20.20
2015,07,25,16,00,20.10
2015,07,25,16,01,20.10
2015,07,25,16,02,20.20
2015,07,25,16,03,20.30
2015,07,25,16,04,20.30
2015,07,25,16,05,20.40
2015,07,25,16,06,20.50
2015,07,25,16,07,20.50
2015,07,25,16,08,20.60
2015,07,25,16,09,20.70
2015,07,25,16,10,20.80
2015,07,25,16,11,20.90
2015,07,25,16,12,21.00
2015,07,25,16,13,21.10
2015,07,25,16,14,21.20
2015,07,25,16,15,21.30
2015,07,25,16,16,21.30
2015,07,25,16,17,21.30
2015,07,25,16,18,21.20
2015,07,25,16,19,21.00
2015,07,25,16,20,20.90
2015,07,25,16,21,20.70
2015,07,25,16,22,20.60
2015,07,25,16,23,20.60
2015,07,25,16,24,20.50
2015,07,25,16,25,20.40
2015,07,25,16,26,20.40
2015,07,25,16,27,20.30
2015,07,25,16,28,20.20
2015,07,25,16,29,20.10
2015,07,25,16,30,20.10
2015,07,25,16,31,20.10
2015,07,25,16,32,20.00
2015,07,25,16,33,20.00
2015,07,25,16,34,19.90
2015,07,25,16,35,19.80
2015,07,25,16,36,19.60
2015,07,25,16,37,19.50
2015,07,25,16,38,19.50
2015,07,25,16,39,19.40
2015,07,25,16,40,19.40
2015,07,25,16,41,19.40
2015,07,25,16,42,19.40
2015,07,25,16,43,19.40
2015,07,25,16,44,19.30
2015,07,25,16,45,19.30
2015,07,25,16,46,19.30
2015,07,25,16,47,19.30
2015,07,25,16,48,19.30
2015,07,25,16,49,19.30
2015,07,25,16,50,19.30
2015,07,25,16,51,19.30
2015,07,25,16,52,19.30
2015,07,25,16,53,19.30
2015,07,25,16,54,19.30
2015,07,25,16,55,19.30
2015,07,25,16,56,19.30
2015,07,25,16,57,19.30
2015,07,25,16,58,19.30
2015,07,25,16,59,19.30
2015,07,25,17,00,19.30
2015,07,25,17,01,19.30
2015,07,25,17,02,19.30
2015,07,25,17,03,19.20
2015,07,25,17,04,19.20
2015,07,25,17,05,19.20
2015,07,25,17,06,19.10
2015,07,25,17,07,19.10
2015,07,25,17,08,19.10
2015,07,25,17,09,19.10
2015,07,25,17,10,19.10
2015,07,25,17,11,19.10
2015,07,25,17,12,19.10
2015,07,25,17,13,19.10
2015,07,25,17,14,19.10
2015,07,25,17,15,19.20
2015,07,25,17,16,19.20
2015,07,25,17,17,19.20
2015,07,25,17,18,19.30
2015,07,25,17,19,19.30